Wetbulb
59.98 59.88 59.78 58.92 58.50 57.41 56.25 55.33 55.30 54.11 52.60 52.01 51.99 51.76 50.95 50.54 49.79 49.26 49.25 49.07 49.76 50.71
55.56 56.20 54.76 54.97 55.14 53.33 53.32 54.10 53.02 51.70 50.86 49.99 49.44 48.71 48.43 48.12 47.79 47.99 48.59 49.57 49.52 50.17
49.53 51.49 52.78 52.30 50.98 51.13 51.36 51.96 50.75 49.34 48.71 48.11 47.68 46.71 46.35 46.12 47.06 47.91 47.78 48.45 47.51 46.61
47.72 48.53 49.10 49.75 49.51 47.95 47.58 47.46 47.78 47.49 46.83 45.94 45.30 44.36 43.69 44.00 44.63 45.64 45.40 45.18 45.02 45.47
47.65 47.98 48.03 48.28 48.46 47.04 46.87 46.13 46.00 45.64 44.42 43.67 43.25 42.66 42.18 42.34 43.65 44.41 44.07 44.63 44.61 44.82
45.18 45.40 45.45 45.57 45.53 45.88 44.85 44.17 43.04 42.91 42.47 42.09 41.73 41.34 40.78 40.93 41.43 40.90 40.66 40.93 42.62 42.23
43.46 43.74 43.68 43.51 43.31 43.23 42.59 41.67 41.14 41.03 40.75 40.30 39.56 39.16 38.75 38.98 38.30 37.64 37.84 38.01 38.12 40.54
42.60 42.35 42.27 42.04 41.60 41.38 41.07 40.71 40.23 39.18 38.71 38.60 38.69 39.14 37.92 38.27 37.90 38.52 39.74 39.61 39.54 39.74
42.00 41.40 40.90 40.25 39.70 39.33 38.90 38.48 38.19 37.76 37.98 37.50 39.55 42.20 43.52 42.11 40.53 40.82 39.97 38.56 38.24 38.98
41.26 40.45 39.72 39.29 38.44 37.50 36.76 36.30 36.22 36.15 36.71 36.60 36.98 42.09 43.12 43.14 40.56 39.19 37.88 36.58 35.25 35.26
40.46 39.59 38.71 37.90 37.19 35.91 35.01 35.15 34.69 34.79 35.38 35.51 37.08 41.83 43.18 42.60 36.08 34.59 34.03 34.19 33.40 33.06
40.10 38.79 37.78 36.85 35.99 34.83 34.20 33.66 33.70 34.41 34.32 34.03 34.36 40.88 42.19 37.94 33.76 33.67 33.44 32.57 31.94 30.90
40.09 39.25 37.76 36.62 35.09 34.56 34.46 34.23 33.09 33.99 33.34 36.32 35.20 40.68 41.17 38.26 33.93 32.83 32.38 31.54 31.06 34.80
39.38 38.83 37.94 35.64 34.00 34.12 34.02 34.11 35.26 34.76 34.36 34.70 36.83 36.80 40.70 39.72 30.13 30.15 29.64 28.92 27.76 28.97
MSLP
1013.20 1013.33 1013.34 1013.48 1014.10 1014.65 1015.14 1015.31 1016.28 1016.87 1017.11 1017.18 1017.54 1018.05 1018.12 1018.21 1018.39 1018.70 1018.94 1019.12 1019.28 1019.20
1013.17 1013.28 1013.45 1013.75 1014.26 1014.62 1014.80 1015.28 1015.87 1016.15 1016.78 1017.15 1017.60 1018.16 1018.52 1018.38 1018.90 1018.92 1018.88 1018.97 1018.89 1019.18
1013.21 1013.25 1013.53 1014.00 1014.66 1014.87 1015.01 1014.85 1015.29 1016.13 1016.46 1016.61 1017.47 1018.02 1018.41 1018.80 1018.95 1019.09 1018.87 1018.84 1018.85 1019.08
1013.60 1013.66 1013.78 1013.99 1014.16 1014.74 1015.33 1015.65 1015.95 1016.48 1016.63 1016.85 1017.42 1017.95 1018.62 1018.99 1018.86 1018.94 1019.12 1018.98 1018.86 1018.85
1013.54 1013.76 1014.04 1014.23 1014.39 1014.49 1015.29 1015.90 1016.15 1016.52 1016.84 1017.32 1017.86 1018.17 1018.53 1018.84 1019.09 1019.01 1018.96 1018.81 1018.91 1018.92
1014.12 1014.21 1014.41 1014.65 1014.80 1015.09 1015.60 1015.97 1016.38 1016.76 1017.20 1017.70 1018.18 1018.53 1018.75 1018.89 1018.93 1019.00 1018.99 1018.87 1019.07 1018.87
1014.33 1014.46 1014.67 1014.93 1015.14 1015.39 1015.70 1016.13 1016.65 1017.10 1017.54 1017.86 1018.37 1018.60 1018.94 1019.06 1019.11 1019.33 1019.25 1019.30 1019.12 1019.21
1014.39 1014.53 1014.85 1015.18 1015.47 1015.78 1016.17 1016.60 1016.99 1017.39 1017.78 1018.15 1018.37 1018.57 1018.83 1019.03 1019.16 1019.22 1019.42 1019.23 1019.37 1019.17
1014.33 1014.58 1014.90 1015.30 1015.71 1016.11 1016.63 1017.08 1017.40 1017.64 1017.87 1018.18 1018.34 1018.51 1018.66 1018.54 1018.77 1019.06 1019.16 1019.35 1019.40 1019.51
1014.21 1014.46 1014.86 1015.28 1015.84 1016.28 1016.61 1016.93 1017.46 1017.83 1018.00 1018.21 1018.35 1018.40 1018.46 1018.52 1018.64 1018.78 1019.12 1019.37 1019.59 1019.60
1013.87 1014.31 1014.71 1015.18 1015.81 1016.27 1016.59 1016.89 1017.29 1017.76 1018.02 1018.20 1018.21 1018.23 1018.27 1018.42 1018.69 1018.91 1019.13 1019.39 1019.57 1019.74
1013.25 1013.87 1014.46 1014.93 1015.58 1016.13 1016.52 1016.89 1017.08 1017.40 1017.81 1018.01 1018.11 1018.13 1018.20 1018.47 1018.83 1019.08 1019.27 1019.49 1019.68 1019.87
1012.75 1013.27 1013.95 1014.42 1015.17 1015.67 1016.07 1016.51 1016.86 1017.36 1017.62 1017.76 1017.91 1017.95 1018.07 1018.39 1018.77 1019.11 1019.33 1019.53 1019.69 1019.72
1012.16 1012.62 1013.16 1014.06 1014.70 1015.25 1015.89 1016.25 1016.63 1016.99 1017.21 1017.49 1017.70 1017.77 1017.83 1018.12 1018.59 1018.88 1019.21 1019.44 1019.60 1019.61
Wind_Speed
5 3 3 5 5 5 4 5 7 3 2 5 5 4 2 1 1 2 3 5 5 3
4 5 4 5 4 5 5 5 7 7 6 5 4 3 2 2 3 2 3 4 3 3
3 4 5 5 1 1 2 5 7 4 4 6 5 2 1 2 3 4 3 2 3 2
3 4 5 5 6 7 6 5 6 4 5 5 5 3 1 3 4 4 5 3 3 4
3 4 5 6 5 7 6 5 6 5 5 4 3 3 2 3 4 5 5 5 4 5
4 4 4 5 5 5 6 5 5 5 5 4 3 2 0 2 3 3 3 2 3 1
5 5 5 5 6 6 5 6 5 4 4 4 3 3 1 2 2 1 1 1 2 1
5 5 5 5 5 5 5 4 5 5 4 4 4 3 4 2 2 3 3 2 2 1
6 6 6 6 6 6 4 4 4 4 4 4 2 6 8 5 4 4 4 3 2 2
6 6 6 6 6 6 6 5 4 3 3 4 4 6 7 7 3 4 4 4 4 2
7 6 6 7 6 5 4 6 5 4 4 3 4 7 7 4 2 2 2 3 3 2
8 7 7 7 7 4 5 4 4 3 5 5 4 7 6 6 3 3 4 3 3 3
8 9 9 8 8 5 4 4 4 3 3 6 5 7 7 6 3 3 2 2 3 7
8 9 8 7 5 6 5 4 4 4 3 5 5 5 9 8 3 3 3 3 3 4
Wind_Direction
235 212 222 171 171 172 185 135 153 197 82 39 42 23 43 109 147 210 242 256 242 243
229 213 171 155 174 153 145 156 161 154 133 120 86 49 349 27 290 258 241 251 255 240
227 178 164 145 118 28 11 153 137 93 114 114 106 110 45 299 272 271 277 264 241 249
166 145 131 126 135 129 113 115 118 131 131 122 129 102 15 287 289 271 270 265 248 259
155 141 137 137 132 128 138 147 138 133 118 114 131 134 193 271 284 261 267 270 257 258
155 143 142 131 121 118 127 126 121 125 136 145 145 145 100 292 293 289 300 325 275 230
176 171 162 152 146 143 140 136 136 136 141 139 143 128 117 344 322 290 12 40 53 16
181 164 157 153 141 128 136 149 150 143 147 153 157 174 181 195 253 242 224 185 182 145
175 168 167 152 151 146 142 141 144 154 159 178 218 233 236 198 199 229 215 197 153 106
183 177 175 162 158 160 157 142 157 175 184 214 230 245 246 255 216 194 209 189 179 152
183 185 171 160 169 161 154 169 165 195 208 211 233 243 244 241 120 129 133 163 169 159
180 177 174 175 174 173 161 167 174 176 202 208 234 247 213 138 141 163 170 170 187 190
181 180 187 176 174 166 165 170 155 181 210 226 221 227 221 174 161 192 191 199 209 206
183 185 182 164 155 155 162 149 163 188 191 214 211 219 231 197 184 195 190 201 208 226